GEFSSE_500_meanwind_354.txt.gz
Wind_Speed
8 8 8 9 9 9 9 9 10 10 9 8 8 8 7 7 6 5 4 4 3 4 4 3 3 3 2 1 1 1 1 1 0 1 1 1 1 1 2 2 2 3 3
8 7 8 9 9 9 9 9 10 10 9 8 8 8 7 7 6 5 4 4 4 4 4 4 4 4 3 2 2 1 1 1 1 1 2 2 2 3 2 2 2 3 4
8 7 8 8 8 8 8 9 9 9 9 8 7 7 6 6 6 5 5 4 4 4 4 4 4 4 3 3 2 1 1 1 2 2 2 2 2 3 3 2 2 2 3
7 7 8 8 8 8 8 9 9 9 8 7 7 6 6 6 5 5 5 4 4 4 4 3 3 3 3 3 2 2 2 2 2 3 2 3 3 3 3 3 3 2 2
8 8 8 8 9 9 8 9 8 8 7 7 6 6 6 5 5 5 4 4 4 4 3 3 2 3 3 3 3 3 2 3 4 4 3 3 3 3 3 3 3 3 4
8 9 9 9 9 9 9 9 8 7 7 7 6 6 5 5 4 4 4 3 3 3 3 2 2 2 3 3 3 3 3 3 4 4 3 3 2 2 3 3 4 4 4
9 9 9 9 9 9 9 9 8 7 7 7 6 6 5 4 4 3 3 2 2 2 2 2 2 2 3 3 3 3 3 4 4 4 4 4 3 3 4 4 5 5 5
8 9 9 9 8 8 8 8 7 6 6 6 6 5 4 4 3 2 2 2 2 2 2 1 2 2 3 3 3 3 4 4 4 4 3 4 4 4 4 4 5 5 5
8 8 9 8 8 8 7 7 7 7 6 5 5 4 4 4 3 2 1 1 1 2 1 1 2 2 3 3 3 4 4 4 4 4 4 4 4 5 4 5 5 6 6
8 8 9 8 8 8 7 7 6 6 6 5 5 5 3 3 3 1 1 1 1 1 1 1 2 2 3 4 4 4 4 5 5 5 5 5 5 5 5 5 6 6 7
8 8 8 7 7 7 7 6 6 6 6 5 5 5 4 3 3 2 1 1 1 1 1 1 2 2 3 4 4 4 5 5 6 6 5 6 5 5 6 6 7 7 8
7 7 7 6 6 6 6 6 6 6 5 4 4 5 4 4 3 3 2 1 1 2 2 2 3 3 4 4 4 5 5 6 6 6 5 5 5 5 6 7 7 7 8
7 6 6 6 6 6 6 6 6 6 5 4 4 5 4 4 3 2 2 2 1 2 2 3 3 4 5 5 5 5 5 6 7 6 6 5 5 6 7 7 7 7 8
7 7 6 6 6 6 5 6 6 5 5 5 4 4 4 4 3 2 2 2 2 2 3 3 4 4 5 5 6 6 6 7 7 6 6 6 6 6 7 7 7 7 8
7 7 6 5 5 5 5 5 5 5 4 4 4 3 3 3 3 3 3 3 3 3 4 5 6 6 6 6 6 6 7 7 7 7 7 7 7 7 7 7 7 8 8
6 5 5 5 5 4 4 4 4 4 4 3 3 3 3 3 4 4 4 4 4 4 5 5 6 7 7 7 7 7 8 8 8 8 8 8 7 7 7 8 8 9 9
5 5 5 5 4 4 4 4 3 3 3 3 4 4 4 4 4 5 5 5 5 5 5 6 7 7 7 7 7 8 9 9 9 9 8 8 8 8 9 9 10 10 11
5 5 4 4 5 5 4 4 3 4 4 4 5 5 5 5 5 5 6 6 6 6 6 6 7 7 8 8 8 9 9 9 10 10 9 10 9 9 9 10 10 11 12
6 6 5 5 5 5 5 5 4 4 4 4 5 5 6 6 6 6 7 7 7 7 7 7 7 7 8 8 9 9 10 10 11 11 11 10 10 10 10 11 11 12 13
6 6 6 5 5 6 6 5 4 4 4 5 5 5 6 7 7 7 7 8 8 9 9 9 8 8 9 9 10 10 10 10 11 12 12 12 12 12 11 12 12 13 13
6 6 6 6 5 5 6 5 5 5 5 5 5 6 7 8 8 8 8 8 8 9 9 9 9 9 9 10 12 12 13 13 12 12 13 13 13 14 14 13 14 14 14
5 6 6 6 5 5 6 6 6 6 6 6 6 7 8 8 8 8 9 9 9 9 10 10 11 11 11 12 13 14 13 14 13 13 14 15 15 15 15 16 16 16 16
6 6 7 6 6 6 6 6 6 6 7 7 8 8 9 9 9 8 9 10 10 10 11 11 12 13 13 14 14 14 14 14 16 17 16 16 16 16 17 17 17 17 17
7 7 7 6 6 7 7 7 8 7 7 8 9 9 10 10 10 10 10 10 11 11 12 12 13 14 15 15 15 15 15 16 17 18 18 18 18 18 18 18 18 19 19
8 9 9 8 7 7 8 8 9 8 9 10 11 11 12 12 11 11 12 11 11 12 13 14 15 15 15 15 15 16 17 18 19 19 19 18 19 20 19 19 20 21 21
8 9 10 9 8 9 9 9 9 9 10 11 12 13 13 13 12 12 13 13 13 14 15 16 16 16 16 17 17 18 19 20 20 21 20 20 20 21 21 21 21 21 22

GEFSSE_500_meanwind_360.txt.gz
Wind_Speed
9 9 9 9 8 8 7 9 10 10 10 10 11 10 10 9 8 6 6 5 4 4 4 4 4 3 2 2 3 2 2 2 2 2 2 3 3 2 3 3 2 3 4
9 8 9 8 8 8 8 9 9 9 9 9 10 10 9 8 7 6 6 5 4 4 3 4 4 3 2 2 2 2 2 2 2 3 3 2 2 2 2 2 1 1 2
8 8 9 8 8 8 8 8 9 9 9 8 9 9 9 8 7 6 6 5 4 4 4 3 4 3 2 2 2 2 1 1 1 1 1 1 2 2 2 1 1 1 2
8 8 8 8 7 7 8 8 9 9 9 8 8 8 8 7 6 6 5 5 4 4 3 3 3 3 3 3 2 2 1 1 1 1 1 2 2 3 2 2 2 2 2
8 8 7 7 7 8 8 8 8 8 8 7 7 8 7 7 6 5 5 4 4 3 3 3 2 2 2 2 2 1 0 1 2 2 2 2 1 2 2 3 3 2 2
8 7 7 7 8 8 8 7 7 7 6 6 7 7 6 6 5 4 4 3 3 3 2 1 1 1 1 1 1 0 0 1 2 2 2 2 2 2 2 2 3 4 3
7 7 8 8 8 8 8 7 7 6 6 6 6 6 6 5 4 4 3 3 3 2 1 1 0 1 1 1 0 1 1 2 2 2 2 3 3 3 3 3 4 4 4
7 7 8 8 8 8 7 6 6 6 5 5 5 5 5 4 4 3 3 3 2 2 1 0 0 1 1 1 1 2 2 2 3 3 3 3 4 5 4 4 4 5 5
6 6 7 7 7 7 7 6 6 6 5 5 5 5 4 4 3 3 2 2 2 2 1 0 1 1 1 1 2 2 3 3 4 4 4 4 4 5 5 6 6 6 6
5 6 5 5 5 5 5 5 5 5 5 5 4 4 3 3 3 2 1 1 2 2 2 1 1 1 2 2 3 3 4 4 3 4 5 5 6 6 6 6 6 6 7
5 4 4 4 4 4 4 4 4 4 4 4 3 3 3 3 2 1 1 1 1 2 3 3 3 3 3 3 3 4 5 5 4 5 6 6 7 7 7 7 6 7 7
5 4 4 4 3 4 4 4 4 4 4 3 3 3 2 2 2 1 0 0 1 2 3 3 4 4 4 4 4 5 5 5 5 5 6 7 7 7 7 7 7 8 8
4 4 4 4 4 5 4 4 4 3 3 3 3 2 2 2 2 1 0 1 1 2 3 3 4 5 5 6 6 6 6 7 6 6 6 6 7 8 7 7 8 8 9
4 4 3 3 3 4 4 4 4 3 3 2 2 2 2 1 1 1 1 1 2 2 2 3 4 5 6 6 6 6 6 7 7 7 6 6 6 7 7 7 9 10 9
4 3 2 2 2 3 3 3 3 3 2 1 2 1 1 1 1 1 2 2 2 3 3 4 5 6 7 7 6 6 7 7 7 7 7 7 8 8 8 9 9 10 11
3 2 1 1 2 1 1 1 1 2 0 0 0 1 1 1 1 2 3 3 3 3 4 5 6 6 7 6 6 6 7 7 7 8 9 9 9 8 9 9 10 10 11
2 2 1 0 1 1 1 1 1 1 1 1 1 1 1 1 2 2 3 4 4 5 5 6 6 6 6 7 8 8 8 8 9 10 10 10 10 10 10 11 11 11 12
2 2 1 1 1 1 1 1 2 2 2 2 2 2 2 2 2 3 4 5 5 5 6 6 6 7 7 8 9 9 10 10 10 10 10 11 11 11 11 12 12 13 13
2 2 2 1 1 1 2 2 3 3 4 4 3 3 3 3 4 4 5 5 5 6 6 7 7 8 8 9 9 10 11 11 11 11 11 12 12 13 13 13 14 14 14
3 3 2 2 2 2 2 3 4 4 4 4 4 4 4 5 5 5 6 6 7 7 8 8 9 9 9 10 11 11 12 13 13 13 13 13 13 14 15 15 15 15 15
4 4 3 3 3 3 4 4 4 5 5 5 5 5 5 6 6 7 7 8 8 9 9 10 10 11 11 12 12 13 13 14 14 14 14 14 14 14 15 15 16 16 16
3 4 4 5 5 6 6 6 6 6 7 7 6 6 7 7 8 8 9 9 10 11 11 11 11 12 13 13 13 14 14 15 15 15 15 15 15 15 15 16 16 17 17
5 5 5 5 6 7 7 7 7 7 7 7 7 8 8 8 9 9 10 11 12 12 13 13 13 13 13 14 14 15 15 16 16 15 15 16 16 16 17 16 16 17 18
6 6 6 6 7 8 8 9 8 8 9 10 9 9 9 10 10 11 12 12 13 13 14 14 14 14 15 15 16 16 16 16 16 15 15 16 16 17 17 17 17 17 19
7 7 7 8 9 9 9 9 10 10 10 10 10 10 11 11 12 12 13 13 14 14 15 16 16 16 16 16 16 17 17 17 16 16 16 16 17 18 18 18 18 19 20
9 9 9 10 10 11 11 11 11 11 11 12 12 13 13 13 14 14 15 15 15 15 16 17 18 18 17 18 18 18 18 18 17 17 18 18 18 19 19 20 20 21 22

GEFSSE_500_meanwind_366.txt.gz
Wind_Speed
2 2 2 2 3 3 2 4 6 7 7 8 8 7 6 5 5 4 4 3 2 1 0 0 1 1 1 1 2 2 2 1 1 1 1 1 1 1 1 1 1 1 1
2 3 3 3 3 4 5 6 6 6 6 7 7 6 6 4 4 3 3 2 2 1 1 1 1 1 1 1 1 1 2 2 1 1 0 0 1 0 1 1 1 0 1
3 3 4 4 4 4 5 4 4 4 5 5 5 5 5 4 3 3 3 2 2 1 2 2 2 2 1 1 0 1 0 0 1 1 1 1 1 2 1 1 1 0 0
4 4 4 4 4 4 4 4 4 4 4 3 4 4 4 4 3 3 3 2 2 2 2 2 2 2 1 1 1 0 0 1 1 1 1 2 2 2 2 1 1 1 1
4 4 4 5 5 5 4 4 4 3 2 1 1 3 4 4 3 3 3 2 2 2 2 2 2 3 2 1 0 1 1 1 1 1 1 1 2 2 2 2 2 2 2
4 4 4 4 4 4 4 3 3 2 2 2 2 2 3 3 3 2 2 1 1 2 2 2 3 3 3 1 1 1 1 1 2 2 2 2 3 3 3 3 3 3 3
4 4 4 4 4 4 4 3 3 3 2 2 2 2 2 2 1 1 0 0 1 2 2 2 2 3 3 2 2 2 2 2 3 3 3 3 3 4 4 4 4 4 3
4 4 4 4 3 3 3 3 3 3 3 2 2 2 2 1 1 1 1 1 2 2 2 2 3 3 3 3 3 3 3 3 3 3 3 3 4 4 5 5 5 5 4
4 4 3 3 2 2 2 2 2 2 2 1 1 1 1 1 0 1 1 2 2 3 3 3 3 3 4 4 4 4 4 4 4 4 4 4 4 5 5 5 5 5 5
3 3 3 2 2 2 1 1 1 1 1 1 1 0 0 1 1 1 2 2 2 3 3 4 4 4 5 5 5 5 5 5 5 5 5 5 6 6 5 5 6 6 7
3 3 3 2 2 1 1 0 1 1 2 1 1 2 2 2 1 2 2 2 3 3 3 3 4 4 5 5 5 5 6 6 7 7 7 6 6 6 6 7 7 8 8
4 3 3 3 2 2 2 1 2 2 2 2 3 3 3 2 2 2 3 3 3 3 4 4 4 4 5 5 6 7 7 8 7 7 7 7 6 7 7 8 8 8 8
4 4 3 3 3 2 2 2 3 3 3 3 3 3 3 3 3 4 4 3 3 3 4 5 5 5 6 6 7 8 8 7 8 7 6 6 7 8 8 9 9 9 9
4 4 4 4 4 3 3 3 3 4 4 3 3 4 3 4 4 4 5 5 5 4 4 5 5 5 6 6 7 8 8 9 9 8 7 8 8 8 8 9 9 9 10
4 4 4 4 4 4 4 4 4 4 4 4 4 4 4 5 5 5 5 5 6 6 5 6 7 7 7 7 8 9 9 10 10 8 8 8 8 8 8 9 10 10 10
5 5 5 5 5 4 4 4 4 5 4 4 5 5 5 5 5 5 6 6 6 7 7 7 7 8 8 8 9 9 9 9 10 9 9 9 9 9 10 10 11 11 11
5 5 6 6 5 5 5 5 6 6 6 5 5 6 6 6 5 5 6 7 7 8 8 8 8 9 9 9 9 10 9 9 9 9 9 9 10 10 10 11 12 12 12
6 6 6 6 6 6 6 6 6 6 6 6 6 7 7 7 7 7 7 8 8 9 9 9 9 10 10 10 10 10 10 10 10 10 10 10 10 11 11 11 12 12 12
6 6 7 6 7 7 6 6 6 7 7 7 8 8 8 8 8 8 8 9 10 10 10 10 10 11 11 11 11 11 11 11 11 12 12 12 12 12 11 12 12 12 13
7 7 7 7 7 7 7 7 7 8 8 9 9 9 9 9 9 10 10 11 11 11 12 12 12 12 12 12 13 13 13 13 13 14 14 14 14 13 12 12 12 13 13
8 7 7 7 8 8 8 8 8 9 9 9 10 10 10 10 11 12 12 12 12 12 12 13 13 13 13 13 14 14 14 15 15 15 16 16 15 14 14 14 14 14 14
8 8 8 9 9 9 10 10 11 11 11 10 11 11 11 11 11 12 12 12 13 13 13 14 14 14 14 15 15 15 15 15 15 16 17 17 16 15 16 15 15 15 15
9 9 9 10 11 10 11 12 12 12 12 12 12 12 12 12 12 12 13 13 14 15 15 16 15 16 16 16 16 16 17 17 17 17 17 17 16 16 16 17 16 16 16
11 10 10 11 12 12 12 13 13 13 13 14 13 13 13 13 13 14 14 15 15 16 17 17 17 17 17 17 18 18 18 18 18 18 17 17 17 17 18 18 18 18 18
12 11 11 12 13 13 14 14 14 14 15 15 15 15 15 15 14 15 16 16 16 17 18 18 18 18 18 19 20 20 19 19 19 19 18 18 18 19 19 19 20 20 21
13 14 13 14 14 15 16 16 15 16 16 16 16 16 16 16 16 17 17 17 18 19 19 19 19 20 20 20 21 22 21 20 20 20 20 19 19 20 21 21 22 22 22

GEFSSE_500_meanwind_372.txt.gz
Wind_Speed
5 5 5 4 5 4 2 3 4 4 4 3 4 4 3 3 2 1 1 2 1 1 0 1 0 1 1 2 2 2 2 2 2 2 3 2 2 3 3 3 3 3 2
6 6 6 5 5 6 5 5 5 4 4 3 4 4 4 3 2 1 1 1 1 1 1 1 1 1 1 1 2 2 1 2 1 2 2 2 2 3 3 3 3 3 3
7 7 6 6 6 6 6 6 5 4 3 3 4 4 4 4 3 3 2 1 1 2 2 2 2 1 1 1 1 1 1 1 1 1 2 1 2 2 2 2 2 3 2
8 7 6 6 6 6 6 6 5 4 4 4 4 3 4 3 3 3 2 2 3 2 2 2 2 2 1 1 1 1 2 1 1 1 1 1 2 2 2 2 2 2 2
8 7 6 6 7 6 5 6 5 5 4 4 4 4 4 3 3 3 2 2 1 2 2 2 2 2 2 1 0 0 1 1 1 1 1 1 1 1 1 1 1 3 3
7 6 6 6 6 6 7 6 6 5 4 4 4 4 4 3 3 2 1 1 1 1 2 2 2 3 3 2 1 1 1 1 1 2 2 2 1 1 2 1 2 3 3
7 7 7 6 6 6 6 6 6 5 5 4 3 3 3 3 2 2 2 1 1 1 1 2 3 3 2 2 2 2 1 1 1 2 2 1 1 2 2 2 2 3 3
7 7 7 7 7 6 6 5 5 5 5 4 4 3 3 3 2 2 2 2 2 2 1 2 2 2 2 2 2 2 2 2 2 2 2 2 2 2 3 3 3 3 4
6 7 7 7 7 6 5 5 5 6 5 5 5 4 3 2 2 2 2 2 2 2 2 2 2 3 3 2 2 2 3 2 3 2 3 3 2 3 4 4 4 4 4
7 6 6 6 6 6 6 6 5 5 5 5 5 4 4 2 2 2 2 2 1 2 2 2 3 3 3 2 2 2 3 2 3 3 3 3 4 4 5 5 5 4 5
6 6 6 6 6 6 6 5 5 5 5 4 4 4 3 3 3 3 3 2 2 2 2 3 3 4 3 3 3 3 3 3 3 3 4 5 5 5 5 4 5 5 5
6 6 6 6 6 6 6 5 5 5 4 4 4 3 4 3 3 4 4 3 3 3 3 3 4 4 4 4 4 4 5 4 4 4 5 5 5 5 5 6 6 6 6
6 6 6 5 6 6 6 6 5 5 4 4 4 3 3 3 3 4 5 4 4 3 4 4 4 4 4 4 5 6 5 5 4 4 4 5 5 5 6 7 7 7 7
6 5 5 5 6 6 6 5 5 5 5 5 4 4 3 3 3 4 5 5 5 5 4 4 5 5 5 5 6 6 6 5 5 5 5 6 6 7 7 8 8 9 9
6 5 5 5 6 6 6 6 5 5 5 4 4 3 3 4 4 4 5 5 6 6 6 5 6 6 7 7 7 7 7 6 6 6 6 8 8 8 8 9 9 10 10
7 6 5 5 6 6 6 6 5 5 5 4 4 4 4 4 4 4 5 6 7 7 7 6 6 7 7 8 8 8 8 7 8 8 8 9 9 9 9 10 10 10 11
7 6 6 5 5 5 5 5 5 4 4 4 4 5 5 4 4 4 5 6 7 8 8 7 7 8 8 8 8 9 8 9 8 8 9 9 9 9 9 10 10 11 11
8 7 7 6 6 5 5 5 5 5 5 5 5 5 4 5 5 5 6 6 7 8 9 9 8 8 8 9 9 9 9 8 8 8 9 10 10 10 10 11 12 12 12
9 8 8 8 6 6 6 5 5 6 5 5 5 4 5 5 5 6 6 7 8 9 10 9 9 9 9 10 10 10 10 10 10 10 10 10 10 11 11 11 12 13 13
9 8 8 8 7 6 7 7 6 6 6 5 5 5 6 6 7 8 8 9 9 10 10 10 10 11 11 11 12 12 12 12 12 12 12 12 11 12 12 12 13 13 14
9 8 8 7 7 7 7 7 7 7 6 6 6 7 7 8 9 9 10 10 10 11 11 12 12 12 12 12 13 13 13 14 14 13 13 13 13 13 14 14 15 15 15
8 8 8 7 6 7 7 7 8 8 8 8 8 8 8 9 10 11 11 11 12 12 12 13 13 13 13 13 13 13 14 14 15 15 15 15 15 15 16 16 16 16 15
9 8 8 7 7 7 8 8 9 9 9 9 9 9 10 10 11 11 12 12 13 13 14 14 14 14 15 15 15 14 14 14 15 16 17 17 16 16 17 17 17 17 17
9 8 8 8 8 8 9 9 9 9 9 9 9 10 11 11 11 12 12 12 13 14 15 15 15 15 15 16 16 16 15 16 16 16 17 17 17 17 17 18 18 18 18
10 9 9 9 10 9 10 10 10 10 10 10 11 11 12 13 12 12 12 13 13 14 15 15 16 16 16 17 17 17 17 18 18 18 18 18 18 18 18 18 18 19 19
10 10 9 10 11 11 10 11 10 10 11 11 12 12 12 12 12 13 14 14 15 15 16 16 17 17 18 18 18 19 20 20 20 19 19 19 19 18 19 19 20 20 21

GEFSSE_500_meanwind_378.txt.gz
Wind_Speed
5 4 5 4 3 2 3 3 4 5 5 5 4 4 4 4 4 4 3 3 2 2 1 1 1 1 1 0 0 1 2 1 1 1 2 2 2 2 2 2 2 3 3
6 5 5 5 5 5 5 5 5 6 5 5 5 5 4 4 3 3 3 3 2 2 2 2 2 1 1 1 1 1 1 1 1 1 2 2 2 2 2 2 2 3 3
7 6 6 6 7 8 8 7 6 6 6 5 5 5 5 4 3 3 3 3 2 2 2 3 2 2 1 1 1 1 0 1 1 1 1 1 2 2 2 2 2 2 3
7 7 7 7 8 8 8 7 6 6 5 4 4 4 4 4 3 2 2 2 2 3 3 3 2 2 1 2 1 1 0 1 2 1 1 1 1 1 2 2 3 3 3
8 8 8 8 7 7 7 6 6 5 5 5 4 4 4 3 3 3 2 3 3 4 3 3 2 2 2 2 1 1 0 1 2 1 1 2 1 2 1 2 2 3 4
8 8 8 8 8 7 7 6 6 6 6 6 6 5 5 3 3 3 3 3 3 3 3 3 2 2 2 2 1 0 0 1 1 1 2 2 1 2 2 2 3 3 4
7 7 8 8 8 7 7 6 6 6 6 6 6 6 5 4 3 3 4 4 4 4 3 3 3 3 3 2 2 1 1 1 1 1 2 2 2 2 3 3 3 4 4
6 7 7 8 8 7 7 7 7 7 6 6 5 5 5 5 5 4 4 3 3 3 3 3 3 3 2 2 2 2 0 0 1 2 2 2 3 3 4 4 4 4 5
7 7 8 8 8 8 8 8 8 7 6 6 5 6 6 6 5 5 4 4 3 3 3 3 3 3 3 2 2 1 1 2 2 3 3 3 3 4 5 5 5 5 5
7 8 8 8 8 8 8 8 8 7 7 6 5 5 5 5 5 5 4 4 4 3 2 3 3 3 3 3 3 2 2 3 4 4 4 4 4 4 5 6 6 6 6
8 8 9 9 8 8 8 7 7 6 6 6 6 5 4 4 4 4 3 3 3 3 3 3 3 3 4 4 4 4 4 4 5 5 5 5 5 5 5 6 7 7 7
7 8 8 8 8 8 8 7 6 6 6 5 5 4 4 3 3 3 3 3 3 3 3 3 3 4 4 5 5 5 6 6 5 6 6 6 6 6 6 6 6 7 7
6 6 7 7 7 8 7 7 6 5 5 5 4 3 3 2 2 2 2 2 2 3 3 4 3 4 5 6 6 6 7 6 6 6 7 7 7 7 7 8 8 8 8
5 5 5 5 5 6 5 5 5 5 4 4 3 3 3 2 2 2 2 2 3 3 3 4 5 5 6 7 7 7 7 8 8 7 7 7 7 8 8 9 9 10 10
5 5 5 5 4 4 4 4 4 4 3 3 2 3 2 2 2 2 2 3 3 3 4 4 5 6 6 7 7 7 7 8 9 8 8 7 8 8 9 9 10 11 12
5 5 5 4 3 3 3 3 3 3 3 2 1 1 1 2 2 3 3 3 3 4 5 5 6 6 6 7 7 8 9 9 9 9 9 9 9 9 9 10 11 11 11
6 5 5 4 3 2 2 3 3 3 2 2 2 2 2 3 3 3 3 4 5 5 6 6 7 8 8 8 8 9 10 10 10 11 11 10 10 10 10 11 11 12 13
5 5 4 4 3 2 2 2 1 2 2 2 3 3 3 4 4 5 5 6 6 7 7 8 8 8 9 9 9 10 10 10 11 12 11 11 12 12 12 12 13 13 14
5 5 4 4 2 1 1 2 1 1 3 3 3 4 4 4 6 6 6 7 8 8 9 10 10 11 11 11 11 12 12 12 12 12 12 13 13 14 13 14 14 15 15
6 5 4 4 3 2 1 1 1 3 4 5 5 5 5 6 6 7 8 9 9 10 11 11 11 12 12 13 13 13 13 14 14 14 14 14 14 15 15 15 16 16 16
6 5 4 3 3 3 2 2 2 3 5 5 6 6 6 7 8 9 10 10 11 12 13 13 13 13 14 14 15 15 15 15 16 16 15 16 16 16 17 17 17 18 18
6 5 4 4 5 5 4 3 4 4 5 6 6 7 8 8 9 11 12 12 13 13 14 14 14 15 15 16 16 16 17 17 17 17 17 17 18 18 19 18 19 19 19
8 7 5 5 5 6 5 4 4 5 6 7 7 9 9 9 10 11 12 13 13 14 15 15 16 16 16 17 17 17 17 16 17 18 19 19 19 19 20 20 20 21 21
8 7 6 6 6 6 6 6 6 6 7 8 8 9 10 10 11 12 13 13 15 15 16 17 17 17 17 18 18 18 18 18 18 18 18 19 20 20 21 21 21 21 22
9 8 8 8 8 8 8 8 7 8 8 9 10 10 10 11 12 13 14 15 16 16 17 17 17 18 18 19 19 19 19 19 19 19 19 20 21 21 21 21 21 21 22
9 9 9 8 9 9 9 9 9 9 10 11 11 11 11 12 13 14 15 15 16 17 17 18 18 19 19 19 19 20 20 20 20 21 21 21 21 21 21 21 22 23 23